Location: Haulchin
(50.3172°N, 3.4360°E)
Time: 04:17:51
(UTC+00:00)

Resurs 1-4 Rocket - Pass Details

Date: 23 May 2024
Orbit: 798 x 813 km, 98.7° (Epoch: 21 June)

Event Time Altitude Azimuth Distance (km) Brightness Sun altitude
Rises 02:04:59 0° 14° (NNE) 3,320 6.8 -12.4°
Reaches altitude 10° 02:07:19 10° 13° (NNE) 2,385 5.8 -12.2°
Maximum altitude 02:12:35 79° 288° (WNW) 819 2.1 -11.7°
Enters shadow 02:17:05 14° 203° (SSW) 2,082 3.6 -11.3°
